Regional Weather Roundup
Issued by NWS

Home | Current Version | Previous Version | Graphics & Text | Print | Product List | Glossary On
Versions: 1 2 3 4 5 6 7 8 9 10 11 12 13 14 15 16 17 18 19 20 21 22 23 24 25 26 27 28 29 30 31 32 33 34 35 36 37 38 39 40 41 42 43 44 45 46 47 48 49 50
000
ASUS44 KMEG 251000
RWRTN
TENNESSEE HOURLY STATE WEATHER ROUNDUP
NATIONAL WEATHER SERVICE MEMPHIS TN
500 AM CDT SAT APR 25 2015

TNZ002-004-019-021-049-052-054-088>092-251100-
WEST TENNESSEE

CITY           SKY/WX    TMP DP  RH WIND       PRES   REMARKS
MEMPHIS INTL   CLOUDY    63  60  90 S13       29.67R
NWS MEMPHIS      N/A     61 N/A N/A MISG        N/A
JACKSON        CLOUDY    60  58  92 S14       29.63R
DYERSBURG      CLOUDY    57  45  62 CALM      29.65R
UNION CITY     MOCLDY    55  32  41 CALM      29.62F
PARIS          CLOUDY    55  54  94 CALM      29.65F
LEXINGTON      CLOUDY    57  57 100 S10       29.63F
SAVANNAH       PTCLDY    57  32  38 S8        29.66S
$$

TNZ008-025-027-028-033-062-065-066-251100-
NORTH MIDDLE TENNESSEE

CITY           SKY/WX    TMP DP  RH WIND       PRES   REMARKS
NASHVILLE      CLOUDY    57  55  93 SE8       29.73F
CLARKSVILLE    CLOUDY    58  56  93 E5        29.68F
COOKEVILLE     CLOUDY    55  54  94 S7        29.79R
CROSSVILLE     CLOUDY    53  49  86 S5        29.84F
$$

TNZ061-075-076-078-094-096-097-251100-
SOUTH MIDDLE TENNESSEE

CITY           SKY/WX    TMP DP  RH WIND       PRES   REMARKS
FAYETTEVILLE   CLOUDY    52  52 100 SE12      29.80F
TULLAHOMA      CLOUDY    54  52  94 S12       29.80F
WINCHESTER     CLOUDY    54  54 100 SE12      29.84F
MCMINNVILLE    CLOUDY    57  57 100 S5        29.78F
COLUMBIA       MOCLDY    57  32  38 S12       29.67F
SHELBYVILLE    MOCLDY    57  57 100 S15       29.77S
$$

TNZ017-018-042-046-047-251100-
NORTHEAST TENNESSEE

CITY           SKY/WX    TMP DP  RH WIND       PRES   REMARKS
TRI CITIES     CLOUDY    53  40  61 CALM      29.85F
ELIZABETHTON   CLOUDY    50  37  62 CALM      29.85S
$$

TNZ012-013-036-069-073-074-251100-
CENTRAL EAST TENNESSEE

CITY           SKY/WX    TMP DP  RH WIND       PRES   REMARKS
KNOXVILLE      LGT RAIN  54  46  74 W8        29.82F
OAK RIDGE      LGT RAIN  53  46  77 VRB5      29.85F
GATLINBURG     PTSUNNY   50  45  81 E3        29.82F
$$

TNZ083-085-099-251100-
SOUTHEAST TENNESSEE

CITY           SKY/WX    TMP DP  RH WIND       PRES   REMARKS
CHATTANOOGA    RAIN      52  51  97 NW5       29.89R FOG
$$

SKY/WX REPORTED AS FAIR MEANS FEW OR NO CLOUDS BELOW
12 THOUSAND FEET.




USA.gov is the U.S. government's official web portal to all federal, state and local government web resources and services.